Location: Newark
(48.1500°N, 2.9667°W)
Time: 10:53:25
(UTC+00:00)

Courier 1B - Pass Details

Date: 30 January 2020
Orbit: 962 x 1209 km, 28.3° (Epoch: 25 February)

Event Time Altitude Azimuth Distance (km) Brightness Sun altitude
Exits shadow 04:40:12 12° 183° (S) 2,845 9.8 -30.6°
Drops below altitude 10° 04:42:01 10° 169° (SSE) 3,028 10.1 -30.3°
Sets 04:46:55 0° 142° (SE) 4,039 11.1 -29.4°
